Tracking 29892 objects as of 21-Nov-2024
HD Live streaming from Space Station
objects crossing your sky now

STARLINK-4400

Track STARLINK-4400 now!
10-day predictions
STARLINK-4400 is classified as:


NORAD ID: 53468
Int'l Code: 2022-099D
Perigee: 569.8 km
Apogee: 570.6 km
Inclination: 97.7 °
Period: 95.9 minutes
Semi major axis: 6941 km
RCS: Unknown
Launch date: August 12, 2022
Source: United States (US)
Launch site: AIR FORCE WESTERN TEST RANGE (AFWTR)
Your satellite tracking list
Your tracking list is empty




NASA's NSSDC Master Catalog

Two Line Element Set (TLE):
1 53468U 22099D   24325.75919365  .00002311  00000-0  18449-3 0  9995
2 53468  97.6575  84.3524 0000567 258.0938 102.0222 15.01251515124873
Source of the keplerian elements: AFSPC